Inquirer Daily News

Weather

Get conditions and forecasts for any City, State, ZIP code or Country:  
Trenton, NJ
on Saturday, February 9, 2013

Saturday
Previous Day Next Day
Daily Summary
 ActualAverageRecord
Temperature
Mean Temperature °F 33°F  
Max Temperature 33°F 41°F 61°F (1990)
Min Temperature 21°F 25°F -14°F (1934)
Degree Days
Heating Degree Days 38 32  
Month to date heating degree days 330 294  
Since 1 July heating degree days 3038 3240  
Cooling Degree Days 0 0  
Month to date cooling degree days 0 0  
Year to date cooling degree days 0 0  
Moisture
Dew Point 21°F   
Average Humidity 70    
Maximum Humidity 100    
Minimum Humidity 39    
Precipitation
Precipitation 0.10 in 0.08 in 1.17 in (1969)
Month to date precipitation 0.51 0.65  
Year to date precipitation 3.33 3.81  
Wind
Wind Speed 14 mph   
Max Wind Speed 26 mph   
Max Gust Speed 38 mph   
Visibility 5 miles   
Events Fog , Snow   

Key: T is trace of precipitation, MM is missing value
Source: NWS Daily Summary
Time(EST)TemperatureDew PointHumidity Pressure Visibility Wind DirectionWind SpeedGust SpeedPrecipitationEvents Conditions
12:11 AM 30.2°F 28.4°F 93% 29.77 in 0.8 miles NNE 9.2 mph - 0.02 in Snow Light Snow
12:31 AM 30.2°F 28.4°F 93% 29.78 in 1.0 miles North 8.1 mph - 0.03 in Snow Light Snow
12:53 AM 30.9°F 28.9°F 92% 29.77 in 1.2 miles North 5.8 mph - 0.04 in Snow Light Snow
1:16 AM 30.2°F 28.4°F 93% 29.77 in 1.8 miles NNW 4.6 mph - 0.01 in Snow Light Snow
1:29 AM 30.2°F 28.4°F 93% 29.78 in 0.8 miles North 6.9 mph - 0.02 in Snow Light Snow
1:37 AM 30.2°F 30.2°F 100% 29.79 in 0.5 miles North 4.6 mph - 0.03 in Fog , Snow Snow
1:48 AM 30.2°F 30.2°F 100% 29.79 in 1.0 miles NNW 4.6 mph - 0.05 in Snow Light Snow
1:53 AM 30.9°F 30.0°F 96% 29.78 in 1.2 miles North 4.6 mph - 0.05 in Snow Light Snow
2:01 AM 30.2°F 30.2°F 100% 29.79 in 2.0 miles NNW 4.6 mph - 0.00 in Snow Light Snow
2:15 AM 30.2°F 30.2°F 100% 29.79 in 2.5 miles Calm Calm - 0.00 in Snow Light Snow
2:23 AM 30.2°F 30.2°F 100% 29.80 in 3.0 miles NNW 4.6 mph - 0.00 in Snow Light Snow
2:34 AM 32.0°F 30.2°F 93% 29.80 in 2.0 miles NNW 5.8 mph - 0.01 in Snow Light Snow
2:37 AM 32.0°F 30.2°F 93% 29.80 in 1.8 miles NNW 4.6 mph - 0.01 in Snow Light Snow
2:43 AM 32.0°F 30.2°F 93% 29.80 in 2.0 miles NNW 8.1 mph - 0.01 in Snow Light Snow
2:53 AM 32.0°F 30.0°F 92% 29.80 in 4.0 miles NNW 5.8 mph - 0.01 in Snow Light Snow
2:57 AM 32.0°F 30.2°F 93% 29.81 in 2.5 miles NW 5.8 mph - 0.00 in Snow Light Snow
3:02 AM 32.0°F 30.2°F 93% 29.81 in 1.2 miles NW 8.1 mph - 0.00 in Snow Light Snow
3:08 AM 32.0°F 28.4°F 87% 29.81 in 0.8 miles NNW 16.1 mph 24.2 mph 0.01 in Snow Light Snow
3:18 AM 30.2°F 28.4°F 93% 29.82 in 1.2 miles NNW 17.3 mph 31.1 mph 0.01 in Snow Light Snow
3:26 AM 28.4°F 26.6°F 93% 29.82 in 1.5 miles NNW 18.4 mph 31.1 mph 0.01 in Snow Light Snow
3:36 AM 28.4°F 24.8°F 86% 29.82 in 2.5 miles North 20.7 mph 29.9 mph 0.01 in Snow Light Snow
3:53 AM 28.0°F 23.0°F 81% 29.84 in 5.0 miles North 15.0 mph 29.9 mph 0.01 in Snow Light Snow
4:22 AM 26.6°F 21.2°F 80% 29.86 in 4.0 miles NNW 16.1 mph 25.3 mph 0.00 in Snow Light Snow
4:53 AM 26.1°F 21.0°F 81% 29.87 in 7.0 miles NNW 16.1 mph 24.2 mph 0.00 in Snow Light Snow
5:53 AM 26.1°F 19.0°F 75% 29.90 in 10.0 miles NNW 16.1 mph 25.3 mph 0.00 in   Overcast
6:53 AM 26.1°F 18.0°F 71% 29.94 in 10.0 miles NW 16.1 mph 25.3 mph 0.00 in   Overcast
7:53 AM 26.1°F 17.1°F 69% 29.96 in 10.0 miles NNW 20.7 mph 29.9 mph 0.00 in   Overcast
8:53 AM 26.1°F 16.0°F 66% 29.99 in 9.0 miles NNW 16.1 mph 29.9 mph 0.00 in   Overcast
9:53 AM 27.0°F 16.0°F 63% 30.01 in 8.0 miles North 17.3 mph 34.5 mph 0.00 in   Clear
10:53 AM 28.0°F 16.0°F 61% 30.05 in 6.0 miles NNW 18.4 mph 33.4 mph 0.00 in   Clear
11:53 AM 30.0°F 16.0°F 56% 30.06 in 10.0 miles North 16.1 mph 27.6 mph 0.00 in   Clear
12:53 PM 30.9°F 15.1°F 52% 30.08 in 10.0 miles North 21.9 mph 28.8 mph N/A   Clear
1:53 PM 32.0°F 14.0°F 48% 30.11 in 10.0 miles NNW 12.7 mph 24.2 mph N/A   Clear
2:53 PM 33.1°F 12.9°F 43% 30.12 in 10.0 miles North 17.3 mph 27.6 mph N/A   Clear
3:53 PM 32.0°F 10.9°F 42% 30.14 in 10.0 miles North 19.6 mph 25.3 mph N/A   Clear
4:53 PM 30.9°F 10.0°F 42% 30.17 in 10.0 miles North 13.8 mph 19.6 mph N/A   Clear
5:53 PM 28.9°F 8.1°F 41% 30.20 in 10.0 miles North 17.3 mph 24.2 mph N/A   Clear
6:53 PM 27.0°F 8.1°F 45% 30.22 in 10.0 miles NNW 12.7 mph 19.6 mph N/A   Clear
7:53 PM 26.1°F 7.0°F 44% 30.26 in 10.0 miles NNW 12.7 mph 20.7 mph N/A   Clear
8:53 PM 25.0°F 7.0°F 46% 30.30 in 10.0 miles NNW 10.4 mph 17.3 mph N/A   Clear
9:53 PM 23.0°F 7.0°F 50% 30.32 in 10.0 miles North 10.4 mph - N/A   Clear
10:53 PM 21.9°F 7.0°F 53% 30.33 in 10.0 miles North 9.2 mph - N/A   Clear
11:53 PM 21.0°F 7.0°F 55% 30.35 in 10.0 miles North 5.8 mph - N/A   Clear
Astronomy
Sunrise:06:59 AM (EST) Moon Rise:06:09 AM (EST)2/9
Sunset:05:27 PM (EST) Moon Set:05:07 PM (EST)2/9
Moon Phase
Feb. 09 Feb. 10 Feb. 17 Feb. 25 Mar. 04

Copyright © 2014 The Weather Underground, Inc.